Starlink 6053

operational
NORAD ID: 56466 Int'l Des: 2023-064 Owner: SPXS Country: US Constellation: starlink
LEOCIRCULAR

About Starlink 6053

Description loading...

Live Position

Loading 3D Globe...

Upcoming Passes

Altitude History

Altitude vs Time

uPlot chart will show altitude changes over time

Two-Line Element Set

1 56466U 23064U 25257.58335648 -.00044572 00000-0 -37492-2 0 9996
2 56466 70.0005 228.3473 0003440 270.5344 329.2154 14.98351558 5769
Epoch: Sep 14, 2025 • Age: 18 hours

Current Status

Altitude 585.2 km
Velocity 7.57 km/s
Sub-Earth Point -39.96°S, 43.61°W
Launch Date May 10, 2023
Age 2.3 years
Type internet

Technical Details

Classification Payload
Mass 305.00 kg
Dry Mass 290.00 kg
Total Mass 305.00 kg
Length 0.20 m
Diameter 2.80 m
Span 9.00 m
Shape Box + pan
Manufacturer SPXS
Bus Type Starlink
Phase Status In Orbit
Owner/State SPXS/US

Large Constellations

Loading constellations...